Flag for U.S.A. Weather past 2 weeks in Bryan – College Station, Texas, U.S.A.

Now
84 °F

Broken clouds.


Feels Like: 92 °F
Forecast: 78 / 91 °F
Wind: 17 mph from South

Location: Easterwood Field

Current Time: Jul 7, 2015 at 10:55:07 AM

Latest Report: Jul 7, 2015 at 9:53 AM


Visibility: 10 mi

Pressure: 29.99 "Hg

Humidity: 74%

Dew point: 75 °F

Location of Bryan – College StationLocation

Historic Weather in Bryan – College Station — Graph

°F

Bryan – College Station temperature yesterday

Maximum temperature yesterday: 92 °F (at 2:53 PM)
Minimum temperature yesterday: 78 °F (at 2:53 AM)
Average temperature yesterday: 84 °F

Past Weeks' High & Low Weather Summary

 TemperatureHumidityPressure
High93 °F (Jun 26, 4:53 PM)97% (Jul 1, 12:53 AM)30.16 "Hg (Jul 1, 12:53 AM)
Low71 °F (Jul 2, 2:53 AM)47% (Jun 26, 4:53 PM)29.90 "Hg (Jun 26, 6:53 PM)
Average82 °F77%30.01 "Hg
* Reported Jun 22 9:53 AM — Jul 7 9:53 AM, Bryan – College Station, Weather by CustomWeather, © 2015

Note: Actual official high and low records may vary slightly from our data, if they occured in-between our weather recording intervals... More about our weather records

Advertising

Bryan – College Station weather history for previous 24 hours

 ConditionsComfort  
Time TempWeatherWind HumidityBarometerVisibility
9:53 AM
Tue, Jul 7
84 °FBroken clouds.17 mph74%29.99 "Hg10 mi
8:53 AM82 °FMostly cloudy.14 mph85%29.99 "Hg8 mi
7:53 AM80 °FMore clouds than sun.13 mph87%29.99 "Hg7 mi
6:53 AM79 °FFog.9 mph90%29.99 "Hg6 mi
5:53 AM79 °FMostly cloudy.9 mph94%29.99 "Hg7 mi
4:53 AM79 °FLow clouds.13 mph90%29.97 "Hg7 mi
3:53 AM78 °FLow clouds.10 mph93%29.96 "Hg7 mi
2:53 AM78 °FPassing clouds.10 mph90%29.98 "Hg8 mi
1:53 AM78 °FPassing clouds.8 mph90%30.00 "Hg9 mi
12:53 AM79 °FClear.9 mph84%30.00 "Hg10 mi
11:53 PM
Mon, Jul 6
79 °FClear.9 mph84%30.01 "Hg10 mi
10:53 PM81 °FClear.7 mph79%30.01 "Hg10 mi
9:53 PM82 °FClear.10 mph74%29.96 "Hg10 mi
8:53 PM83 °FSunny.12 mph70%29.91 "Hg10 mi
7:53 PM86 °FSunny.18 mph65%29.91 "Hg10 mi
6:53 PM89 °FScattered clouds.15 mph57%29.93 "Hg10 mi
5:53 PM89 °FSunny.21 mph55%29.96 "Hg10 mi
4:53 PM91 °FScattered clouds.20 mph52%29.98 "Hg10 mi
3:53 PM91 °FScattered clouds.18 mph54%29.99 "Hg10 mi
2:53 PM92 °FPassing clouds.20 mph47%30.01 "Hg10 mi
1:53 PM90 °FScattered clouds.17 mph54%30.02 "Hg10 mi
12:53 PM89 °FBroken clouds.14 mph57%30.04 "Hg10 mi
11:53 AM88 °FPassing clouds.15 mph61%30.06 "Hg10 mi
10:53 AM86 °FScattered clouds.12 mph70%30.06 "Hg10 mi
Weather by CustomWeather, © 2015

See weather overviewHow to use our weather pages